{"data":{"norad_id":84232,"epoch":"2026-05-23T09:10:44.037696Z","epoch_age_seconds":217871,"freshness":"STALE","line1":"1 84232U          26143.38245414  .00044065  00000+0  18389-1 0  9994","line2":"2 84232  20.2597 178.9708 6499163 236.3742  44.5585  3.29060556109895","mean_motion":3.29060556,"eccentricity":0.6499163,"inclination_deg":20.2597,"raan_deg":178.9708,"arg_perigee_deg":236.3742,"mean_anomaly_deg":44.5585,"bstar":0.018389,"rev_number":10989,"period_min":437.60942286866,"perigee_km":306.17193004128,"apogee_km":25124.472969875,"semimajor_km":19093.459449958,"source":"CELESTRAK","updated_at":"2026-05-25T13:38:11.426314Z"}}